Regional Weather Roundup
Issued by NWS Sioux Falls, SD

Home | Current Version | Previous Version | Text Only | Print | Product List | Glossary On
Versions: 1 2 3 4 5 6 7 8 9 10 11 12 13 14 15 16 17 18 19 20 21 22 23 24 25 26 27 28 29 30 31 32 33 34 35 36 37 38 39 40 41 42 43 44 45 46 47 48 49 50
000
ASUS43 KFSD 212310
RWRFSD

WEATHER ROUNDUP FOR SE SOUTH DAKOTA/SW MINNESOTA/NW IOWA
NATIONAL WEATHER SERVICE SIOUX FALLS SD
600 PM CDT SAT OCT 21 2017

NOTE: "FAIR" INDICATES FEW OR NO CLOUDS BELOW 12,000 FEET WITH NO
SIGNIFICANT WEATHER AND OR OBSTRUCTIONS TO VISIBILITY.


SDZ038>040-050-052>070-220000-
SOUTHEAST SOUTH DAKOTA

CITY           SKY/WX    TMP DP  RH WIND       PRES   REMARKS
BROOKINGS      CLOUDY    50  41  71 NW16      29.77R
CHAMBERLAIN    CLEAR     58  36  43 W13       29.84R
HURON          MOCLDY    55  37  50 W16G26    29.79R
MADISON        MOCLDY    50  39  66 NW18G24   29.78S
MITCHELL       PTCLDY    56  38  50 W14       29.82R
SIOUX FALLS    CLOUDY    53  42  66 NW13      29.79R
WINNER         FAIR      58  32  37 NW23      29.86R
YANKTON        PTCLDY    54  38  54 W15G23    29.85R
$$

MNZ071-072-080-081-089-090-097-098-220000-
SOUTHWEST MINNESOTA

CITY           SKY/WX    TMP DP  RH WIND       PRES   REMARKS
FAIRMONT       CLOUDY    58  50  75 W14       29.75R
JACKSON        RAIN      54  45  71 W14G21    29.77R
LUVERNE        CLOUDY    52  39  62 NW12      29.80R
MARSHALL       CLOUDY    55  41  59 NW25G31   29.73R
MONTEVIDEO     CLOUDY    57  43  58 NW16G23   29.71R
PIPESTONE      CLOUDY    52  39  62 NW13      29.77R
REDWOOD FALLS  LGT RAIN  57  46  66 W13       29.72R
TRACY          CLOUDY    56  44  64 W13G21    29.75R
WORTHINGTON    CLOUDY    54  43  66 W13       29.79R
$$

IAZ001>003-012>014-020>022-031-032-NEZ013-014-SDZ071-220000-
NORTHWEST IOWA

CITY           SKY/WX    TMP DP  RH WIND       PRES   REMARKS
CHEROKEE       CLOUDY    55  45  68 NW12      29.80S
DENISON        CLOUDY    57  45  62 NW12G20   29.83R
ESTHERVILLE    CLOUDY    55  47  74 NW10G21   29.75R
LE MARS        CLOUDY    55  41  58 NW9       29.83R
ORANGE CITY    CLOUDY    55  45  67 NW12      29.82R
SHELDON        CLOUDY    54  43  66 W10       29.79R
SIOUX CITY     CLOUDY    55  43  63 NW12      29.85R
SPENCER        LGT RAIN  56  45  66 W15       29.78R
STORM LAKE     CLOUDY    55  45  67 NW17G28   29.78S
$$

ABBREVIATIONS USED IN REMARKS
   TC - TEMPERATURE IN CELSIUS
  WCI - WIND CHILL INDEX
   HX - HEAT INDEX
  VSB - VISIBILITY





USA.gov is the U.S. government's official web portal to all federal, state and local government web resources and services.